STARLINK-37210, 68557

Orbit data source: Space-Track

STARLINK-37210, 68557 is a payload satellite owned by SpaceX/Seattle (US) in LEO that was launched on Thu, 02 Apr 2026 UTC via an FALCON 9 launch vehicle from the Air Force Eastern Test Range (AFETR). Payload-class satellites include a variety of spacecraft equipped with specific instruments for various scientific and technological missions. These include communications satellites like Starlink; space stations such as the ISS; scientific satellites like the Hubble; Earth observation satellites from companies like Planet Labs, Umbra, and HawkEye 360; GPS; miniature CubeSats for education and research; and military/defense satellites.

Loading next visibility...
Identifier
68557, 2026-070R
Orbit
LEO
Country
Flag of USUS
Related business
Manufacturer
SpaceX/Seattle
Mission
Operational Commercial Communications
Bus & Motor
STARLINK V2MO, Unknown motor
Mass
575 kg wet, ~530 kg dry
Launch date (UTC)
2026-04-02 (5 months ago)
Launch vehicle
FALCON 9
Launch site
Air Force Eastern Test Range (AFETR)
Object type
Payload
Rocket body
Debris
Shape & HBR
Box + 1 Pan, 17.7 m
Radar Cross Section
41.120 m², Large (>1 m²)

Expand to show TLE details & history
Last TLE update: 9 hours ago

TLE from 9 hours ago
0 STARLINK-37210
1 68557U 26070R   26247.05374303  .00007680  00000-0  23821-3 0  9992
2 68557  53.1572 250.5076 0001340  93.9825 266.1330 15.34399596 23915
Epoch: 2026-09-04T01:17Z
TLE epoch observation values (Epoch: 2026-09-04T01:17:23.397Z)
Latitude
-0.0001°
Longitude
-112.02304°
Altitude
463.667 km
Speed
7.636 km/s
True Right ascension
16h 42m 01s
True Declination
0° 00' 00"
Sunlit
Object was in daylight at epoch
Visualization orbit readout
Latitude
Unknown
Longitude
Unknown
Altitude
Unknown
Speed
Unknown
Apparent Right ascension
Unknown
Apparent Declination
Unknown
Sunlit
N/A
Visualization observer readout
Local Sidereal Time
02:17:47
Azimuth
Unknown
Elevation
Unknown
Doppler factor
Unknown
Orbital elements
Apogee altitude
463.878 km
Perigee altitude
462.045 km
Semi-major axis
6,841.099 km
Eccentricity
0.00013
Inclination
53.1572°
RAAN
250.5076°
Arg. of periapsis
93.9825°
True anomaly
266.11768°
Mean anomaly
266.133°
Eccentric anomaly
266.12534°
Mean motion
3.83579 °/min
Orbital period
93.85 mins
BSTAR
0.00023821
Loading maneuver chart data...
Computing Atmospheric mass density...
Loading historical data...
Loading historical data...
Loading historical data...
Loading historical data...
Loading historical data...
Loading historical data...
Loading historical data...

Documentation

Showing up to 5 results
|